Currently 62°F in French Valley, California, USA
62°F
64°F / 53°F
8 mph S
0.10"
Tuesday, May 5, 2026 3:03 PM PDT

French Valley, California Weather Summary
Last 36 Hours

Temperature Winds Hourly Humidity Dewpoint
Time Report Norm Report Norm Max Gusts Precip. Rpt. Norm Rpt. Norm Pressure
1Tue 03:03 PM  61.8°F  74°F  8 mph S  5 mph  17 mph  0.00"  70%  52%  52°F  55°F  29.97"
Tue 03:00 PM  61.8°F  74°F  7 mph SW  5 mph  17 mph  0.00"  70%  52%  52°F  55°F  29.97"
Tue 02:00 PM  63.3°F  74°F  9 mph S  5 mph  19 mph  0.00"  68%  51%  52°F  54°F  29.98"
2Tue 01:52 PM  63.8°F  74°F  9 mph S  5 mph  14 mph  ----  68%  51%  52°F  54°F  29.98"
Tue 01:00 PM  63.2°F  73°F  8 mph SW  4 mph  15 mph  0.00"  70%  52%  53°F  54°F  29.98"
Tue 12:00 PM  61.4°F  71°F  6 mph S  4 mph  15 mph  0.00"  74%  55%  53°F  53°F  30.00"
Tue 11:00 AM  61.2°F  68°F  7 mph S  3 mph  13 mph  0.00"  80%  60%  55°F  54°F  29.99"
Tue 10:00 AM  58.4°F  65°F  4 mph SW  2 mph  11 mph  0.00"  91%  68%  56°F  54°F  29.99"
Tue 09:00 AM  55.3°F  61°F  5 mph SW  2 mph  10 mph  0.00"  100%  77%  55°F  54°F  29.98"
Tue 08:00 AM  54.0°F  58°F  1 mph S  1 mph  7 mph  0.00"  100%  84%  54°F  53°F  29.97"
Tue 07:00 AM  53.5°F  55°F  3 mph S  1 mph  6 mph  0.00"  100%  88%  54°F  51°F  29.96"
Tue 06:00 AM  53.3°F  54°F  calm  1 mph  6 mph  0.01"  100%  89%  53°F  50°F  29.94"
Tue 05:00 AM  53.1°F  54°F  2 mph S  1 mph  7 mph  0.08"  100%  88%  53°F  51°F  29.94"
3Tue 04:58 AM  53.0°F  54°F  3 mph S  1 mph  5 mph  ----  100%  88%  53°F  51°F  29.94"
Tue 04:00 AM  53.6°F  55°F  3 mph S  1 mph  9 mph  0.01"  100%  88%  54°F  51°F  29.95"
Tue 03:00 AM  53.5°F  55°F  calm  1 mph  5 mph  0.00"  100%  87%  54°F  51°F  29.95"
Tue 02:00 AM  53.7°F  56°F  calm  1 mph  5 mph  0.00"  100%  86%  54°F  52°F  29.96"
Tue 01:00 AM  55.1°F  57°F  2 mph N  1 mph  8 mph  0.00"  99%  86%  55°F  52°F  29.99"
Tue 12:00 AM  56.0°F  57°F  4 mph SW  1 mph  10 mph  0.00"  95%  85%  55°F  53°F  29.98"
Mon 11:00 PM  56.7°F  58°F  5 mph SW  1 mph  9 mph  0.00"  100%  84%  57°F  53°F  29.99"
Mon 10:00 PM  57.1°F  59°F  5 mph S  2 mph  11 mph  0.00"  97%  82%  56°F  54°F  29.99"
Mon 09:00 PM  57.3°F  61°F  6 mph S  2 mph  10 mph  0.00"  95%  79%  56°F  54°F  29.98"
Mon 08:00 PM  58.7°F  63°F  6 mph W  3 mph  15 mph  0.00"  82%  74%  53°F  54°F  29.96"
Mon 07:00 PM  61.2°F  66°F  6 mph W  4 mph  16 mph  0.00"  74%  67%  52°F  55°F  29.96"
Mon 06:00 PM  63.8°F  69°F  6 mph SW  5 mph  18 mph  0.00"  67%  60%  52°F  55°F  29.95"
Mon 05:00 PM  66.2°F  72°F  10 mph SW  6 mph  18 mph  0.00"  63%  56%  53°F  54°F  29.94"
Mon 04:00 PM  67.1°F  73°F  9 mph W  5 mph  15 mph  0.00"  54%  53%  49°F  54°F  29.94"
Mon 03:00 PM  67.2°F  74°F  8 mph NW  5 mph  15 mph  0.00"  56%  51%  50°F  54°F  29.97"
Mon 02:00 PM  65.0°F  74°F  6 mph SW  5 mph  14 mph  0.00"  64%  50%  52°F  54°F  29.99"
Mon 01:00 PM  63.3°F  73°F  7 mph SW  4 mph  13 mph  0.00"  66%  50%  51°F  53°F  30.00"
Mon 12:00 PM  62.3°F  71°F  6 mph SW  4 mph  16 mph  0.00"  70%  53%  52°F  53°F  30.02"
Mon 11:00 AM  60.4°F  69°F  6 mph S  3 mph  14 mph  0.00"  77%  59%  53°F  53°F  30.03"
Mon 10:00 AM  59.5°F  65°F  6 mph S  2 mph  10 mph  0.00"  77%  67%  52°F  54°F  30.01"
Mon 09:00 AM  57.0°F  61°F  1 mph SW  2 mph  6 mph  0.00"  98%  76%  56°F  53°F  30.01"
Mon 08:00 AM  54.8°F  58°F  1 mph S  1 mph  6 mph  0.00"  100%  83%  55°F  52°F  30.01"
Mon 07:00 AM  53.6°F  55°F  calm  1 mph  4 mph  0.00"  100%  87%  54°F  51°F  30.00"
Mon 06:00 AM  52.9°F  54°F  2 mph E  1 mph  5 mph  0.00"  100%  88%  53°F  50°F  29.99"
Mon 05:00 AM  54.2°F  54°F  1 mph S  1 mph  7 mph  0.00"  100%  87%  54°F  50°F  29.98"
Mon 04:00 AM  54.9°F  55°F  3 mph S  1 mph  6 mph  0.00"  100%  87%  55°F  51°F  29.98"

  1. Current weather data. No green row appears if the current weather data is also the high or low for the current day.
  2. High temperature for the current day.
  3. Low temperature for the current day.

The French Valley, California weather pages are a service of WeatherCurrents. French Valley is located in southwestern Riverside County, California, north of Temecula, east of Murrieta, and south of Winchester. French Valley is bordered by Lake Skinner.
Copyright ©Tue May 05 15:03:42 PDT 2026  WeatherCurrents. All rights reserved. - Submit questions and comments - Privacy Policy

This page automatically refreshes every 10 minutes.